Regional Weather Roundup
Issued by NWS

Home | Current Version | Previous Version | Text Only | Print | Product List | Glossary On
Versions: 1 2 3 4 5 6 7 8 9 10 11 12 13 14 15 16 17 18 19 20 21 22 23 24 25 26 27 28 29 30 31 32 33 34 35 36 37 38 39 40 41 42 43 44 45 46 47 48 49 50
000
ASUS43 KDTX 260910
RWRMI
MICHIGAN HOURLY REGIONAL WEATHER ROUNDUP
NATIONAL WEATHER SERVICE DETROIT/PONTIAC MI
500 AM EDT SUN OCT 26 2014

NOTE: "FAIR" INDICATES FEW OR NO CLOUDS BELOW 12,000 FEET WITH NO
SIGNIFICANT WEATHER AND/OR OBSTRUCTION TO VISIBILITY.

MIZ047>049-052>055-059>063-066>070-074>076-081>083-261000-
SOUTHEAST LOWER MICHIGAN

CITY           SKY/WX    TMP DP  RH WIND       PRES   REMARKS
ADRIAN         CLEAR     39  31  72 W3        29.90S
ALMA           CLEAR     43  31  62 W8        29.88S
ANN ARBOR      CLEAR     45  29  53 W8        29.87S
BAD AXE        CLEAR     45  35  69 W7        29.81R
DETROIT CITY   CLEAR     50  31  48 W7        29.86R
DETROIT        CLEAR     45  30  55 SW6       29.88R
FLINT          CLEAR     45  31  58 W12       29.87R
GROSSE ILE     CLEAR     48  30  49 W6        29.86R
HILLSDALE      CLEAR     40  32  72 W5        29.90S
HOWELL         CLEAR     42  30  62 W8        29.87S

CITY           SKY/WX    TMP DP  RH WIND       PRES   REMARKS
JACKSON        CLEAR     44  32  62 NW6       29.89S
LAMBERTVILLE   CLEAR     37  32  81 CALM      29.90S
LANSING        CLEAR     44  32  62 W8        29.90S
LAPEER         NOT AVBL
MASON          CLEAR     44  33  65 W6        29.89S
MONROE         CLEAR     43  34  70 W7        29.87R
MT. CLEMENS    CLEAR     48  30  51 W8        29.82R
PONTIAC        CLEAR     47  29  49 W10       29.84R
PORT HOPE        N/A     50  36  58 NW14G29   29.77R
PORT HURON     CLEAR     43  32  65 SW3       29.82R
TRI CITIES     CLEAR     39  30  70 W8        29.86R
YPSILANTI      CLEAR     47  31  53 W8        29.88R
$$
MIZ043>046-050>051-056>058-064>065-071>073-077>080-261000-
SOUTHWEST LOWER MICHIGAN

CITY           SKY/WX    TMP DP  RH WIND       PRES   REMARKS
BATTLE CREEK   CLEAR     47  32  56 NW6       29.93R
BENTON HARBOR  CLEAR     53  36  52 NW8       29.96R
BIG RAPIDS     CLEAR     44  33  66 W6        29.89R
COLDWATER      CLEAR     42  33  72 W5        29.93R
HOLLAND        CLEAR     53  34  48 NW8       29.94R
GRAND RAPIDS   CLEAR     48  34  58 W8        29.92R
KALAMAZOO      CLEAR     44  34  67 W8        29.93S
MARSHALL       CLEAR     39  31  74 W3        29.91R
MUSKEGON       CLEAR     51  34  52 NW9       29.93R
$$
MIZ016>042-261000-
NORTHERN LOWER MICHIGAN

CITY           SKY/WX    TMP DP  RH WIND       PRES   REMARKS
ALPENA         CLEAR     46  32  58 NW20G29   29.77S
BEAVER ISLAND  CLEAR     48  36  64 NW12G17   29.84S
BELLAIRE       CLEAR     49  33  55 NW6       29.86S
CADILLAC       CLEAR     43  33  67 W13       29.85S
CHARLEVOIX     CLEAR     49  36  60 NW17G23   29.88R
FRANKFORT      SUNNY     50  35  56 NW9G17    29.89F
GAYLORD        CLEAR     45  32  60 NW13G21   29.82R
GRAYLING       CLEAR     46  33  58 NW13      29.84R
HARBOR SPRINGS CLEAR     47  35  62 W13G21    29.83R
HOUGHTON LAKE  CLEAR     45  32  60 W8        29.84R
MANISTEE       CLEAR     48  34  57 NW9       29.91R
OSCODA         CLEAR     44  33  66 NW12G17   29.78S
PELLSTON       PTCLDY    46  34  62 NW16      29.82R
TRAVERSE CITY  CLEAR     48  33  56 NW12      29.86S
$$
MIZ007>008-015-261000-
EASTERN UPPER MICHIGAN

CITY           SKY/WX    TMP DP  RH WIND       PRES   REMARKS
KINROSS        CLOUDY    45  37  76 NW9G25    29.78R
MACKINAC ISLAN CLEAR     45  34  66 NW10G24   29.80R
NEWBERRY       CLEAR     42  33  71 NW13G22   29.81S
S. S. MARIE    CLOUDY    45  34  65 NW18G28   29.77R
$$
MIZ004>006-011>014-085-261000-
CENTRAL UPPER MICHIGAN

CITY           SKY/WX    TMP DP  RH WIND       PRES   REMARKS
MANISTIQUE     CLEAR     44  35  68 NW10      29.84S
ESCANABA       CLEAR     43  28  56 W3        29.88R
MENOMINEE      CLEAR     43  27  52 NW3       29.91S
SAWYER-GWINN   CLEAR     42  30  63 NW10      29.88R
$$
MIZ001>003-009>011-084-261000-
WESTERN UPPER MICHIGAN

CITY           SKY/WX    TMP DP  RH WIND       PRES   REMARKS
IRON MOUNTAIN  CLEAR     43  28  55 NW8       29.90S
HOUGHTON       CLEAR     37  31  78 NW8       29.88S
COPPER HARBOR    N/A     46  36  68 N14       29.87R
IRONWOOD       CLEAR     36  28  75 SW5       29.94S
$$

ABBREVIATIONS USED IN REMARKS
   TC - TEMPERATURE IN CELSIUS
  WCI - WIND CHILL INDEX
   HX - HEAT INDEX
  VSB - VISIBILITY




USA.gov is the U.S. government's official web portal to all federal, state and local government web resources and services.